Snowfall_Accumulation
nan nan nan nan nan nan nan 0.0 3.1 0.0 0.0 0.8 0.0 0.2 0.0 nan 0.0 0.0 0.0 0.0 0.0 0.0 0.0 0.0 0.0 0.0 0.0 0.0 0.0 0.0 0.0 0.0 0.0 0.0 0.0 0.0 0.0 0.0 0.0 0.0 0.0 0.0 0.0 0.1
nan nan nan nan nan nan 0.0 0.5 0.0 0.0 0.0 2.3 0.5 0.0 0.0 0.0 0.0 0.0 0.0 0.0 0.0 0.0 0.0 0.0 0.0 0.0 0.0 0.0 0.0 0.0 0.0 0.0 0.0 0.0 0.0 0.0 0.0 0.0 0.0 0.0 0.0 0.0 0.8 0.1
nan nan nan nan nan nan 0.0 1.0 4.4 0.2 0.0 0.0 0.0 0.0 0.0 0.0 0.0 0.0 0.0 0.0 0.0 0.0 0.0 0.0 0.0 0.0 0.0 0.0 0.0 nan nan 0.0 0.0 0.0 0.0 0.0 0.0 0.0 0.0 0.0 0.1 0.0 0.0 0.0
nan nan nan nan nan nan 0.0 0.7 2.6 0.1 2.7 1.2 0.2 0.0 0.0 0.0 0.0 0.0 0.0 0.0 0.0 0.0 0.0 0.0 0.0 0.0 0.0 0.0 nan 0.0 0.0 0.1 0.0 0.0 0.0 0.0 0.0 0.0 0.0 0.0 0.0 0.0 0.0 0.0
nan nan nan nan nan nan 0.0 3.6 0.7 0.0 0.0 0.0 0.1 0.2 0.1 0.0 0.0 0.0 0.0 0.0 0.0 0.0 0.1 0.0 0.0 0.0 0.0 0.0 0.0 0.0 0.0 0.0 0.0 0.0 0.0 0.0 0.0 0.0 0.0 0.0 0.0 0.0 0.0 0.0
nan nan nan nan nan nan 0.0 0.0 0.0 0.0 nan 0.0 0.1 0.1 0.1 0.0 0.0 0.0 0.0 0.0 0.2 0.1 0.0 0.0 0.0 0.0 0.0 0.0 0.0 0.0 0.0 0.1 0.3 0.0 0.0 0.0 0.3 0.0 0.0 0.0 0.0 0.0 0.0 0.0
nan nan nan nan nan nan 0.0 0.0 0.0 1.2 1.5 0.2 0.0 0.0 0.0 0.0 0.0 0.0 0.0 0.0 0.0 0.0 0.0 0.0 0.0 0.0 0.0 0.0 0.0 0.0 0.0 0.2 0.5 1.1 0.2 1.1 0.0 0.0 0.0 0.0 0.0 0.0 0.0 0.0
nan nan nan nan nan nan 0.0 0.0 0.0 0.3 2.6 0.1 0.0 0.0 0.0 0.0 0.0 0.0 0.0 0.0 0.0 0.0 0.0 1.5 0.3 0.3 0.0 0.0 0.0 0.0 0.0 0.0 1.6 3.1 0.7 0.0 0.0 0.0 0.0 0.0 0.0 0.0 0.0 0.0
nan nan nan nan nan nan 0.0 0.0 0.0 0.0 1.8 0.3 0.0 0.0 0.0 0.0 0.0 0.0 0.0 0.0 0.0 0.0 0.9 1.7 0.9 1.1 0.2 0.1 0.0 0.0 0.0 0.0 0.1 1.3 0.5 1.9 0.0 0.0 0.0 0.0 0.0 0.0 0.0 0.0
nan nan nan nan nan nan 0.0 0.0 0.0 0.0 2.0 0.0 0.0 0.8 0.1 0.0 0.0 0.1 0.0 0.0 0.0 0.0 2.1 4.5 2.2 0.8 0.0 0.7 0.2 0.5 0.5 0.7 1.5 0.9 2.2 0.3 0.0 0.0 0.0 0.3 0.0 0.0 0.0 0.0
nan nan nan nan nan nan 0.0 0.0 0.0 0.0 0.6 0.0 0.0 0.0 0.0 0.2 0.0 0.4 0.1 1.2 0.3 0.4 1.9 2.4 0.5 1.1 0.1 0.1 0.0 0.1 0.8 2.5 2.9 1.6 3.1 2.3 0.0 0.0 0.1 0.0 0.0 0.0 0.0 0.0
nan nan nan nan nan nan nan 0.0 0.0 0.0 0.0 0.2 0.0 0.0 0.0 0.0 0.0 0.0 0.0 0.1 0.0 0.2 0.0 0.5 0.4 1.0 1.2 0.0 0.4 0.0 0.3 0.1 0.2 0.3 1.3 0.0 0.0 0.0 0.0 0.0 0.0 0.0 0.0 0.0
nan nan nan nan nan nan nan 0.0 0.0 0.0 0.6 0.9 0.1 0.0 0.0 0.0 0.0 0.0 0.1 0.0 0.0 0.0 0.0 0.1 0.3 0.3 0.0 1.0 0.1 0.0 0.0 0.0 0.0 0.0 0.0 0.0 0.0 0.0 0.0 0.0 0.0 0.0 0.0 0.0
nan nan nan nan nan nan nan 0.0 0.0 0.0 0.0 4.1 0.3 0.0 0.0 0.0 0.0 0.0 0.0 0.0 0.0 0.0 0.0 0.3 0.6 1.3 0.0 0.1 0.0 0.0 0.0 0.0 0.0 0.0 0.0 0.0 0.0 0.0 0.0 0.0 0.0 0.0 0.0 0.0
nan nan nan nan nan nan nan 0.0 0.0 0.0 0.1 1.5 0.4 0.0 0.0 0.0 0.0 0.0 0.0 0.0 0.0 0.0 0.3 1.9 0.8 0.0 0.2 0.1 0.0 0.1 0.0 0.0 0.1 0.1 0.0 0.0 0.0 0.0 0.0 0.0 0.0 0.0 0.0 0.0
nan nan nan nan nan nan 0.0 2.1 0.0 0.0 0.0 1.2 1.2 0.0 0.0 0.0 0.0 0.0 0.0 0.0 0.0 0.0 0.0 0.6 0.0 0.0 0.0 1.5 0.2 0.0 0.0 0.0 0.0 0.0 0.0 0.0 0.0 0.0 0.0 0.0 0.0 0.0 0.0 0.0
nan nan nan nan nan 0.0 0.4 0.2 0.0 nan 0.0 0.7 5.1 0.4 0.0 0.0 0.0 0.0 0.0 0.0 0.0 0.0 0.1 0.7 0.1 0.0 0.0 0.6 0.4 0.0 0.0 0.0 0.0 0.0 0.0 0.0 0.0 0.0 0.0 0.0 0.0 0.0 0.0 0.0
nan nan nan nan nan nan 0.0 0.0 nan nan 0.0 0.1 6.5 1.6 0.3 0.0 0.2 0.2 0.0 0.1 0.1 0.1 0.0 0.2 0.3 0.1 0.3 0.6 0.0 0.0 0.0 0.0 0.0 0.0 0.0 0.0 0.0 0.0 0.0 0.0 0.0 0.0 0.0 0.0
nan nan nan 0.0 0.1 0.3 0.0 nan nan 0.0 0.1 2.4 4.8 3.6 5.9 0.0 0.1 0.2 0.1 0.0 1.7 0.1 0.8 0.5 0.1 0.4 0.6 0.0 0.0 0.0 0.0 0.0 0.0 0.0 0.0 0.0 0.0 0.0 0.0 0.0 0.0 0.0 0.0 0.0
nan 0.1 1.5 11.2 0.5 nan nan 0.0 1.2 0.3 0.2 0.3 1.5 0.3 2.4 0.4 0.9 0.9 1.3 0.3 1.4 3.4 0.9 0.0 1.0 0.2 0.0 0.0 0.0 0.0 0.0 0.0 0.0 0.0 0.0 0.0 0.0 0.0 0.0 0.0 0.0 0.0 0.0 0.0
0.0 3.5 0.8 0.0 nan 0.0 0.3 7.1 6.1 1.9 3.0 0.5 0.2 0.2 0.8 0.1 3.3 3.5 0.8 7.5 1.8 4.1 0.4 0.7 0.5 0.3 0.0 0.0 0.0 0.0 0.0 0.0 0.0 0.0 0.0 0.0 0.0 0.0 0.0 0.0 0.0 0.0 0.0 0.0
0.0 0.0 0.0 0.0 0.3 2.2 4.4 7.2 4.7 0.9 0.2 0.3 0.9 0.5 0.2 0.8 0.3 2.2 4.1 3.4 5.7 3.6 0.1 2.5 1.0 0.3 0.0 0.0 0.0 0.0 0.0 0.0 0.0 0.0 0.0 0.0 0.0 0.0 0.0 0.0 0.0 0.1 0.2 2.9
0.0 0.1 1.8 0.9 6.6 29.9 7.9 5.6 3.7 5.1 0.6 1.3 1.1 4.9 0.6 1.2 0.6 4.6 5.2 8.6 7.0 0.3 5.9 0.7 0.4 0.0 0.1 0.0 0.0 0.0 0.0 0.1 0.0 0.0 0.0 0.0 0.0 0.0 0.0 0.2 0.3 1.4 2.2 2.6
0.6 5.0 35.4 7.2 9.7 2.6 1.9 0.9 0.9 1.1 1.2 0.8 0.5 1.3 1.5 2.0 3.8 3.2 10.4 3.4 1.2 8.6 4.9 2.1 0.8 0.2 0.1 0.2 0.2 0.0 0.0 0.3 2.1 0.2 0.2 0.4 0.6 1.3 2.5 4.8 5.1 4.4 3.5 5.6
2.8 1.7 24.3 8.4 3.8 3.1 3.0 2.1 1.6 1.1 0.8 0.6 1.3 1.8 2.1 6.7 10.7 3.5 2.6 10.0 9.7 4.1 4.2 2.7 1.5 0.6 0.4 0.5 0.5 0.8 1.0 2.0 2.4 2.8 4.0 5.4 4.3 3.1 4.2 4.7 5.0 3.2 6.5 6.7
2.2 2.6 4.8 3.0 7.1 13.0 9.3 6.5 5.5 1.1 1.3 0.9 1.0 5.2 10.1 9.4 6.5 5.9 5.4 3.2 3.5 5.4 2.8 2.1 1.2 1.2 1.5 1.5 1.5 2.6 3.0 4.2 5.2 6.3 6.1 6.4 7.3 6.6 6.5 6.0 6.4 10.2 8.7 12.5
3.2 10.8 3.6 3.7 5.8 10.5 8.2 5.0 2.9 0.9 3.1 11.2 4.4 8.0 6.3 2.1 5.4 3.6 2.4 8.9 4.9 2.7 2.6 2.6 1.9 2.0 2.6 3.5 3.3 5.3 4.0 4.0 4.9 6.5 4.9 6.3 6.4 5.6 4.1 5.3 7.0 5.1 5.5 9.5
Water_Equivalent
nan nan nan nan nan nan nan 0.00 0.68 0.00 0.00 0.14 0.00 0.03 0.00 nan 0.00 0.00 0.00 0.00 0.00 0.00 0.00 0.00 0.00 0.00 0.00 0.00 0.00 0.00 0.00 0.00 0.00 0.00 0.00 0.00 0.00 0.00 0.00 0.01 0.00 0.00 0.00 0.03
nan nan nan nan nan nan 0.00 0.14 0.00 0.00 0.00 0.35 0.08 0.00 0.00 0.00 0.00 0.00 0.00 0.00 0.00 0.00 0.00 0.00 0.00 0.00 0.00 0.00 0.00 0.00 0.00 0.01 0.01 0.00 0.00 0.00 0.00 0.00 0.00 0.00 0.00 0.00 0.24 0.03
nan nan nan nan nan nan 0.00 0.27 0.80 0.05 0.00 0.00 0.00 0.00 0.00 0.00 0.00 0.00 0.00 0.00 0.00 0.00 0.00 0.00 0.00 0.00 0.00 0.00 0.00 nan nan 0.00 0.00 0.00 0.00 0.00 0.00 0.00 0.00 0.00 0.05 0.00 0.00 0.00
nan nan nan nan nan nan 0.00 0.23 0.47 0.02 0.45 0.26 0.03 0.00 0.00 0.00 0.00 0.00 0.00 0.00 0.00 0.00 0.00 0.00 0.00 0.00 0.00 0.00 nan 0.00 0.00 0.02 0.00 0.00 0.00 0.00 0.00 0.00 0.00 0.00 0.00 0.01 0.00 0.00
nan nan nan nan nan nan 0.00 1.00 0.14 0.00 0.00 0.00 0.01 0.03 0.02 0.00 0.00 0.00 0.00 0.00 0.00 0.00 0.02 0.00 0.00 0.00 0.00 0.00 0.00 0.00 0.00 0.01 0.00 0.00 0.00 0.00 0.00 0.00 0.00 0.00 0.00 0.00 0.00 0.00
nan nan nan nan nan nan 0.01 0.00 0.00 0.00 nan 0.00 0.02 0.01 0.02 0.00 0.00 0.00 0.00 0.00 0.05 0.02 0.00 0.00 0.00 0.00 0.00 0.00 0.00 0.00 0.01 0.02 0.06 0.00 0.00 0.00 0.07 0.00 0.00 0.00 0.00 0.00 0.00 0.00
nan nan nan nan nan nan 0.00 0.00 0.00 0.24 0.25 0.04 0.01 0.00 0.00 0.00 0.00 0.00 0.00 0.00 0.01 0.00 0.00 0.00 0.00 0.00 0.00 0.00 0.00 0.00 0.00 0.04 0.11 0.25 0.06 0.24 0.00 0.00 0.00 0.00 0.00 0.00 0.00 0.00
nan nan nan nan nan nan 0.00 0.00 0.00 0.05 0.65 0.02 0.01 0.00 0.00 0.00 0.00 0.00 0.00 0.00 0.00 0.00 0.00 0.29 0.06 0.08 0.00 0.00 0.00 0.00 0.00 0.00 0.38 0.69 0.15 0.01 0.00 0.00 0.00 0.00 0.00 0.00 0.00 0.00
nan nan nan nan nan nan 0.00 0.00 0.00 0.00 0.35 0.05 0.00 0.00 0.00 0.00 0.00 0.01 0.00 0.00 0.00 0.00 0.18 0.32 0.13 0.27 0.06 0.03 0.00 0.00 0.00 0.00 0.06 0.34 0.09 0.49 0.00 0.00 0.00 0.00 0.01 0.00 0.00 0.00
nan nan nan nan nan nan 0.00 0.00 0.00 0.00 0.44 0.00 0.00 0.14 0.02 0.00 0.01 0.02 0.00 0.00 0.00 0.00 0.45 1.49 0.68 0.20 0.00 0.15 0.05 0.11 0.14 0.16 0.34 0.22 0.50 0.10 0.00 0.00 0.00 0.08 0.01 0.00 0.00 0.00
nan nan nan nan nan nan 0.00 0.00 0.00 0.00 0.16 0.00 0.00 0.00 0.00 0.04 0.01 0.07 0.02 0.22 0.07 0.11 0.38 0.88 0.17 0.39 0.03 0.02 0.00 0.01 0.17 0.56 0.76 0.42 0.74 0.53 0.00 0.00 0.01 0.01 0.00 0.00 0.00 0.00
nan nan nan nan nan nan nan 0.00 0.00 0.00 0.00 0.03 0.00 0.00 0.00 0.00 0.00 0.00 0.00 0.02 0.00 0.03 0.01 0.16 0.13 0.36 0.49 0.01 0.13 0.00 0.09 0.02 0.07 0.06 0.27 0.00 0.00 0.00 0.00 0.00 0.00 0.00 0.00 0.00
nan nan nan nan nan nan nan 0.00 0.00 0.00 0.19 0.22 0.01 0.00 0.00 0.00 0.00 0.00 0.01 0.00 0.00 0.00 0.00 0.03 0.08 0.07 0.01 0.36 0.04 0.01 0.00 0.00 0.01 0.00 0.00 0.00 0.00 0.00 0.00 0.00 0.00 0.00 0.00 0.00
nan nan nan nan nan nan nan 0.00 0.00 0.00 0.00 0.86 0.06 0.00 0.00 0.00 0.00 0.00 0.00 0.00 0.00 0.00 0.00 0.09 0.18 0.36 0.00 0.05 0.01 0.00 0.00 0.00 0.00 0.00 0.00 0.00 0.00 0.00 0.00 0.00 0.00 0.00 0.00 0.00
nan nan nan nan nan nan nan 0.00 0.00 0.00 0.03 0.33 0.09 0.00 0.00 0.00 0.00 0.00 0.00 0.00 0.00 0.00 0.10 0.63 0.23 0.00 0.07 0.02 0.02 0.02 0.00 0.00 0.03 0.02 0.00 0.00 0.00 0.00 0.00 0.00 0.00 0.00 0.00 0.00
nan nan nan nan nan nan 0.00 0.77 0.00 0.00 0.00 0.27 0.39 0.00 0.00 0.00 0.00 0.00 0.00 0.00 0.00 0.00 0.01 0.19 0.02 0.00 0.01 0.60 0.07 0.00 0.00 0.00 0.00 0.00 0.00 0.00 0.00 0.00 0.00 0.00 0.00 0.00 0.00 0.00
nan nan nan nan nan 0.00 0.13 0.03 0.00 nan 0.00 0.20 1.52 0.14 0.00 0.00 0.00 0.00 0.00 0.00 0.00 0.00 0.04 0.20 0.02 0.01 0.00 0.24 0.14 0.00 0.00 0.00 0.00 0.00 0.00 0.00 0.00 0.00 0.00 0.00 0.00 0.00 0.00 0.00
nan nan nan nan nan nan 0.00 0.00 nan nan 0.00 0.04 2.30 0.50 0.12 0.00 0.06 0.08 0.00 0.02 0.03 0.04 0.01 0.10 0.10 0.03 0.10 0.17 0.00 0.00 0.00 0.00 0.00 0.00 0.00 0.00 0.00 0.00 0.00 0.00 0.00 0.00 0.00 0.00
nan nan nan 0.00 0.02 0.08 0.00 nan nan 0.00 0.04 0.76 1.80 1.13 1.78 0.00 0.02 0.06 0.05 0.01 0.49 0.04 0.28 0.17 0.02 0.14 0.21 0.00 0.00 0.00 0.00 0.00 0.00 0.00 0.00 0.00 0.00 0.00 0.00 0.00 0.00 0.00 0.00 0.00
nan 0.04 0.61 2.80 0.16 nan nan 0.01 0.38 0.10 0.08 0.11 0.58 0.10 0.70 0.12 0.36 0.30 0.38 0.12 0.45 1.10 0.31 0.00 0.32 0.06 0.00 0.00 0.00 0.00 0.00 0.00 0.00 0.00 0.00 0.00 0.00 0.00 0.00 0.00 0.00 0.00 0.00 0.00
0.01 0.87 0.28 0.00 nan 0.00 0.11 1.50 1.62 0.49 0.94 0.15 0.08 0.05 0.21 0.03 1.10 1.07 0.25 1.90 0.68 1.34 0.12 0.27 0.19 0.10 0.00 0.00 0.00 0.00 0.00 0.00 0.00 0.00 0.00 0.00 0.00 0.00 0.00 0.00 0.00 0.00 0.00 0.00
0.00 0.01 0.00 0.00 0.08 0.56 1.42 2.40 1.39 0.30 0.09 0.12 0.28 0.15 0.05 0.25 0.11 0.58 1.32 1.03 1.57 0.87 0.04 0.84 0.30 0.09 0.00 0.00 0.00 0.00 0.00 0.00 0.00 0.00 0.00 0.00 0.00 0.00 0.00 0.00 0.01 0.02 0.04 0.55
0.00 0.05 0.63 0.27 2.27 5.79 2.50 1.47 1.05 1.68 0.23 0.53 0.43 1.95 0.21 0.35 0.21 1.59 1.65 2.45 1.84 0.13 1.67 0.18 0.12 0.01 0.02 0.00 0.00 0.00 0.00 0.04 0.00 0.00 0.00 0.00 0.00 0.00 0.01 0.04 0.06 0.25 0.30 0.34
0.24 2.01 6.52 2.52 3.04 0.69 0.48 0.26 0.31 0.39 0.48 0.31 0.21 0.50 0.46 0.69 1.22 1.10 2.92 0.89 0.37 2.07 1.13 0.50 0.16 0.03 0.03 0.03 0.04 0.00 0.00 0.08 0.53 0.04 0.04 0.07 0.10 0.17 0.39 0.78 0.86 0.67 0.41 0.66
1.00 0.70 3.97 1.91 0.93 0.81 0.86 0.73 0.61 0.35 0.28 0.25 0.44 0.60 0.52 1.61 2.89 0.95 0.74 2.36 2.14 0.87 0.84 0.57 0.32 0.10 0.08 0.09 0.09 0.12 0.15 0.35 0.36 0.47 0.76 0.87 0.65 0.48 0.51 0.58 0.60 0.38 0.89 0.88
0.70 0.80 1.28 0.93 2.08 3.63 3.05 2.25 1.85 0.30 0.35 0.28 0.35 1.22 2.40 2.11 1.49 1.18 1.14 0.65 0.67 1.03 0.56 0.40 0.20 0.19 0.25 0.24 0.25 0.40 0.45 0.58 0.67 0.76 0.77 0.92 0.93 0.85 0.78 0.78 0.80 1.38 1.22 1.71
0.98 2.44 0.97 0.94 1.61 2.41 2.03 1.37 0.72 0.19 0.83 3.17 1.09 1.73 1.12 0.46 1.08 0.62 0.45 1.66 0.94 0.49 0.42 0.42 0.29 0.29 0.38 0.48 0.46 0.76 0.52 0.50 0.59 0.74 0.54 0.66 0.71 0.66 0.42 0.54 0.65 0.46 0.47 1.33
SL_Ratio
nan nan nan nan nan nan nan nan 4.6 nan nan 5.7 3.3 5.1 nan nan nan nan nan nan nan nan nan nan nan nan nan nan nan nan nan nan nan nan nan nan nan nan nan 2.4 nan nan 2.5 3.4
nan nan nan nan nan nan nan 3.8 nan nan nan 6.7 6.0 nan nan nan nan nan nan nan nan nan nan 0.0 nan nan nan nan nan nan nan 5.0 3.3 nan nan nan nan nan nan nan nan nan 3.4 3.4
nan nan nan nan nan nan nan 3.5 5.5 4.3 nan nan nan nan nan nan nan nan nan nan nan nan nan nan nan nan nan nan nan nan nan nan nan 6.7 4.4 nan nan nan nan nan 2.8 0.0 nan nan
nan nan nan nan nan nan nan 3.1 5.6 4.8 6.0 4.5 5.5 5.4 nan nan 0.0 nan nan nan nan nan nan nan nan nan nan nan nan nan nan 4.2 nan nan nan nan nan nan nan nan nan 3.2 nan nan
nan nan nan nan nan nan nan 3.6 4.9 0.0 nan nan 4.6 5.4 6.1 nan nan nan nan nan nan nan 6.3 nan nan nan nan nan nan nan nan 4.8 nan nan nan nan nan nan nan nan nan nan nan nan
nan nan nan nan nan nan 2.8 nan nan nan nan nan 6.3 5.3 4.9 nan nan nan nan nan 5.2 5.6 nan nan nan nan nan nan nan nan 5.2 3.7 4.5 6.0 nan nan 3.8 nan nan nan nan nan nan nan
nan nan nan nan nan nan nan nan nan 4.9 6.1 5.6 5.8 nan nan nan nan nan nan nan 5.4 nan nan nan nan nan nan nan nan nan nan 4.7 4.2 4.3 3.6 4.5 4.0 nan nan nan nan nan nan nan
nan nan nan nan nan nan nan nan nan 4.7 4.0 5.7 5.2 nan nan nan nan nan nan nan nan nan nan 5.3 5.9 3.7 2.9 2.7 nan nan nan 2.0 4.2 4.5 4.9 4.7 nan nan nan nan nan nan nan nan
nan nan nan nan nan nan nan nan nan nan 5.1 5.5 nan nan nan nan nan 5.6 nan nan nan nan 5.2 5.4 6.6 4.1 3.9 4.6 4.3 nan nan nan 2.5 4.0 5.2 3.9 nan nan nan nan 3.0 nan nan nan
nan nan nan nan nan nan nan nan nan 0.0 4.6 nan 5.4 5.8 5.6 nan 5.2 5.1 nan nan 5.0 nan 4.7 3.0 3.3 3.8 nan 4.2 5.0 4.2 3.5 4.2 4.3 4.1 4.5 3.6 nan nan nan 3.5 2.9 nan nan nan
nan nan nan nan nan nan nan nan nan nan 3.7 4.3 nan nan nan 5.6 5.4 5.3 5.5 5.7 4.5 4.0 4.9 2.8 3.2 2.8 2.5 2.8 5.0 5.9 4.4 4.5 3.8 3.9 4.2 4.3 nan nan 5.1 2.6 nan nan nan nan
nan nan nan nan nan nan nan nan nan nan 5.0 5.4 nan nan nan nan nan 0.0 nan 6.1 6.0 5.6 4.5 2.9 3.2 2.6 2.5 3.1 3.2 nan 3.4 3.5 3.5 4.9 4.9 nan nan nan nan nan nan nan nan nan
nan nan nan nan nan nan nan nan nan nan 3.2 4.0 4.6 nan nan nan nan nan 5.7 0.0 nan nan nan 5.2 3.7 4.5 2.4 2.6 2.5 2.3 nan nan 2.5 2.7 nan nan nan nan nan nan nan nan nan nan
nan nan nan nan nan nan nan nan nan nan 4.0 4.7 4.9 nan nan nan nan nan nan nan nan nan nan 2.8 3.4 3.5 5.0 2.5 2.7 nan nan nan nan nan nan nan nan nan nan nan nan nan nan nan
nan nan nan nan nan nan nan nan nan nan 5.5 4.5 4.4 nan nan nan nan nan nan nan nan nan 3.2 3.0 3.3 3.3 3.0 2.6 2.5 2.4 nan nan 2.5 2.5 nan nan nan nan nan nan nan nan nan nan
nan nan nan nan nan nan nan 2.7 nan nan nan 4.6 3.1 0.0 nan nan nan nan nan nan nan nan 3.1 3.1 2.6 nan 2.6 2.5 2.5 nan nan nan nan nan nan nan nan nan nan nan nan nan nan nan
nan nan nan nan nan nan 3.0 4.5 nan nan nan 3.7 3.4 2.7 nan nan nan nan nan nan nan nan 3.4 3.5 2.6 2.2 2.9 2.6 3.0 nan nan nan nan nan nan nan nan nan nan nan nan nan nan nan
nan nan nan nan nan nan nan nan nan nan nan 2.6 2.8 3.1 2.5 nan 2.5 2.5 nan 2.4 2.5 2.6 3.0 2.5 2.6 2.5 2.5 3.4 nan nan nan nan nan nan nan nan nan nan nan nan nan nan nan nan
nan nan nan 3.3 2.4 3.2 0.0 nan nan nan 3.5 3.2 2.7 3.2 3.3 nan 2.5 2.5 2.5 2.5 3.4 2.6 2.7 3.1 2.6 2.8 3.0 nan nan nan nan nan nan nan nan nan nan nan nan nan nan nan nan nan
nan 2.5 2.5 4.0 3.4 nan nan 3.1 3.1 2.8 2.5 2.5 2.6 3.6 3.4 3.5 2.6 3.1 3.5 2.5 3.1 3.1 2.8 2.7 3.1 2.6 nan nan nan nan nan nan nan nan nan nan nan nan nan nan nan nan nan nan
2.7 4.0 2.8 nan nan nan 3.1 4.7 3.7 3.8 3.2 3.2 3.1 3.7 3.8 2.5 3.0 3.3 3.3 3.9 2.6 3.1 3.3 2.7 2.8 2.8 nan nan nan nan nan nan nan nan nan nan nan nan nan nan nan nan nan 4.7
nan 2.4 nan 2.5 3.1 3.8 3.1 3.0 3.3 3.1 2.7 2.5 3.3 3.4 3.4 3.2 2.7 3.9 3.1 3.3 3.6 4.1 2.5 2.9 3.5 3.4 nan nan nan nan nan nan nan nan nan nan nan nan nan nan 5.3 4.8 5.5 5.4
nan 2.5 2.8 3.3 2.9 5.2 3.2 3.8 3.6 3.1 2.5 2.5 2.5 2.5 3.1 3.4 3.0 2.9 3.2 3.5 3.8 2.8 3.5 3.8 3.4 3.3 3.2 nan nan nan 4.0 2.6 nan 6.3 nan nan nan nan 4.4 5.5 5.8 5.4 7.6 7.7
2.5 2.5 5.4 2.9 3.2 3.8 3.9 3.3 2.7 2.8 2.5 2.5 2.5 2.5 3.3 3.0 3.1 2.9 3.5 3.9 3.3 4.1 4.3 4.2 4.8 5.6 5.5 5.5 4.6 5.0 6.2 4.4 3.9 4.5 5.2 5.4 6.0 7.5 6.5 6.2 5.9 6.6 8.4 8.5
2.8 2.5 6.1 4.4 4.1 3.8 3.6 2.8 2.7 3.1 2.9 2.5 2.9 3.0 4.1 4.2 3.7 3.7 3.5 4.2 4.5 4.6 5.0 4.6 4.6 5.9 5.5 5.7 5.8 6.3 6.4 5.8 6.5 6.1 5.3 6.2 6.6 6.4 8.2 8.0 8.3 8.5 7.3 7.6
3.1 3.3 3.7 3.2 3.4 3.6 3.1 2.9 3.0 3.7 3.6 3.0 2.9 4.3 4.2 4.5 4.4 5.0 4.7 5.0 5.2 5.3 5.0 5.2 5.8 6.2 6.2 6.1 6.1 6.4 6.6 7.3 7.8 8.3 7.9 6.9 7.8 7.8 8.2 7.7 7.9 7.4 7.1 7.4
3.2 4.4 3.7 4.0 3.6 4.4 4.0 3.6 4.0 4.7 3.8 3.5 4.1 4.6 5.6 4.5 5.0 5.8 5.4 5.4 5.3 5.5 6.1 6.1 6.7 6.7 6.9 7.3 7.2 7.0 7.6 8.0 8.3 8.7 9.1 9.4 8.9 8.4 9.8 10.0 10.9 11.1 11.6 7.1